User: anonymous   Login
Location: Bonningues
(50.7927°N, 2.0150°E)
Time: 06:43:56
(UTC+00:00)
Language:

GENESIS II - Orbit

View from above orbital plane
View from above orbital plane
View from above satellite
View from above satellite

Ground track
Ground track

The orbit data is extracted from the following two-line orbital elements,

1 31789U 07028A   20299.92946947 +.00000579 +00000-0 +38824-4 0  9997
2 31789 064.5028 276.6511 0034528 232.2372 127.5622 15.17393319734973
Epoch (UTC): 25 October 2020 22:18:26
Eccentricity: 0.0034528
inclination: 64.5028°
perigee height: 490 km
apogee height: 537 km
right ascension of ascending node: 276.6511°
argument of perigee: 232.2372°
revolutions per day: 15.17393319
mean anomaly at epoch: 127.5622°
orbit number at epoch: 73497

The dashed part of the orbit path shows where the satellite is in the earth's shadow,  

DLR